EHI
0 0 0 0 0 0 0 0 0 1 0 0 1 4 6 9 11 13 16 17 20 24 26 27 29 32 34 37 37 34 31 30 29 27 26 26 25 24 24 24 25 25 23 23
0 0 0 0 0 0 0 0 0 1 0 0 1 3 5 8 11 12 12 14 19 22 24 26 28 30 33 35 35 32 29 27 28 28 27 27 26 23 22 24 26 25 23 23
0 0 0 0 0 0 0 0 0 0 0 0 1 2 4 7 10 11 9 11 15 18 20 22 25 28 31 33 32 30 27 25 26 27 27 27 26 23 22 23 25 24 22 22
0 0 0 0 0 0 0 0 0 0 0 0 0 1 3 5 7 9 8 9 12 15 18 21 25 28 30 29 29 28 26 25 25 26 26 26 24 23 23 22 23 22 21 20
0 0 0 0 0 0 0 0 0 0 0 0 0 1 3 4 5 8 8 8 10 14 17 22 26 27 27 26 26 26 24 25 25 24 24 23 20 20 20 20 20 21 19 17
0 0 0 0 0 0 0 0 0 0 0 0 0 1 2 3 5 7 10 9 8 10 14 18 23 23 22 22 23 23 22 22 24 24 21 19 17 16 16 16 16 17 15 13
0 0 0 0 0 0 0 0 0 0 0 0 0 0 2 4 5 8 10 10 7 8 11 14 18 19 18 18 19 20 19 20 22 23 20 17 14 12 12 12 12 12 10 10
0 0 0 0 0 0 0 0 0 0 0 0 0 0 2 4 6 7 8 7 6 8 10 11 14 16 17 18 18 18 18 18 19 19 17 13 10 7 7 9 9 8 8 8
0 0 0 0 0 0 0 0 0 0 0 0 0 0 2 3 4 5 4 3 4 6 7 9 12 15 15 17 19 19 17 16 15 14 12 9 6 5 6 7 8 7 6 6
0 0 0 0 0 0 0 0 0 0 0 0 0 0 0 1 1 2 2 1 2 4 6 8 11 12 11 11 14 16 16 13 11 10 8 6 6 6 6 7 8 7 5 4
0 0 0 0 0 0 0 0 0 0 0 0 0 0 0 0 0 0 0 1 2 3 5 7 9 9 7 6 7 10 11 10 8 7 5 4 5 6 7 7 7 6 5 3
0 0 0 0 0 0 0 0 0 0 0 0 0 0 1 1 1 0 0 1 2 3 5 6 7 7 6 5 5 6 7 6 4 3 2 2 3 4 5 7 7 7 6 5
0 0 0 0 0 0 0 0 0 0 0 0 0 0 1 2 1 0 0 1 3 4 5 5 5 6 7 6 5 6 6 4 3 2 2 2 3 3 4 5 7 7 6 6
0 0 0 0 0 0 0 0 0 0 0 0 0 0 1 1 0 0 0 1 2 4 4 4 5 7 9 7 7 6 5 4 4 4 3 4 5 5 4 4 5 5 5 6
0 0 0 0 0 0 1 1 1 1 0 0 0 0 0 0 0 0 0 0 1 2 2 3 5 10 11 9 7 6 5 4 4 4 4 4 4 5 4 3 2 3 4 4
1 1 0 0 0 1 2 2 2 2 1 0 0 0 0 0 0 1 1 0 0 0 1 2 7 11 12 11 9 7 5 5 4 4 3 3 3 4 3 1 1 2 3 3
2 1 0 0 0 1 2 2 2 1 1 0 0 0 0 0 2 3 2 1 1 0 1 5 9 12 14 12 10 8 6 6 6 5 4 3 3 3 2 2 3 4 4 4
3 2 1 0 0 0 1 1 0 1 1 0 0 0 0 2 4 5 5 4 3 2 4 8 12 14 15 14 11 8 7 7 6 5 3 2 3 3 3 4 5 6 6 6
2 2 1 0 0 0 0 0 0 0 1 0 0 1 2 4 6 8 9 7 6 7 8 10 12 13 15 14 11 8 7 6 6 4 2 1 1 3 3 4 6 7 7 7
1 1 1 0 0 0 0 0 0 0 1 1 1 2 4 6 7 9 11 10 11 12 10 8 9 11 13 13 11 9 7 6 5 2 0 0 1 2 2 3 3 5 5 5
0 0 0 0 0 0 0 0 0 0 1 2 2 3 6 7 8 9 11 12 12 11 8 6 7 8 10 12 11 9 6 5 3 1 0 0 0 1 1 1 1 2 3 3
0 0 0 0 0 0 0 0 0 0 2 3 3 3 4 6 6 8 10 10 9 6 5 5 6 8 9 9 9 7 5 4 2 1 1 0 0 0 0 0 0 0 1 1
0 0 0 0 0 0 0 0 0 0 1 2 2 2 2 4 5 6 8 8 6 3 4 6 6 6 7 7 5 4 4 3 2 2 2 1 0 0 0 0 0 0 0 0
0 0 0 0 0 0 0 0 0 0 0 1 1 1 1 3 4 5 6 7 5 3 4 6 6 5 5 5 4 3 4 3 3 3 3 2 1 0 1 1 1 0 0 0
0 0 0 0 0 0 0 0 0 0 0 0 0 0 1 2 3 3 5 5 5 3 3 5 5 4 5 5 4 3 3 3 3 3 3 2 1 0 1 2 1 1 1 1
0 0 0 1 1 1 1 1 1 0 0 0 0 0 0 1 2 3 3 4 3 2 2 4 4 4 5 5 4 3 3 3 3 3 3 2 1 0 1 1 1 1 1 0
Wind_Speed
10 9 7 8 7 8 9 8 7 5 2 2 3 3 4 4 4 4 4 5 5 6 7 5 5 6 5 5 5 4 3 2 2 1 1 0 0 1 1 0 1 2 1 1
7 7 8 8 7 8 9 9 7 3 3 3 2 3 5 3 4 5 5 5 6 6 5 4 4 5 5 4 4 4 3 2 1 1 1 0 0 0 0 0 1 1 1 1
7 3 4 7 6 7 8 7 6 6 6 6 4 3 5 5 5 6 5 6 6 4 4 3 4 4 4 4 3 3 2 1 1 1 1 1 1 0 0 1 1 1 1 1
7 5 5 7 6 7 6 6 7 8 8 6 5 3 4 6 6 5 4 4 5 4 4 3 3 3 4 3 3 3 2 1 1 1 0 1 0 0 1 1 1 1 1 1
5 4 5 6 6 6 6 7 9 9 8 7 4 2 3 5 5 4 3 4 5 4 4 3 3 3 4 3 3 3 3 2 1 1 0 0 1 0 0 1 1 1 1 1
5 2 3 5 6 4 7 8 9 8 6 6 5 3 2 2 3 3 4 4 4 4 5 4 3 4 3 2 2 2 2 1 1 1 0 0 1 1 1 1 1 1 1 1
5 3 1 4 5 4 6 6 4 4 4 3 2 2 3 4 4 4 4 5 5 5 4 4 4 3 3 2 2 3 2 1 1 0 0 1 1 1 0 1 1 1 1 1
6 3 2 3 4 5 6 4 3 4 4 3 2 3 4 5 5 6 5 5 5 5 5 4 4 3 2 2 2 2 2 1 1 1 1 0 0 1 0 0 1 1 0 0
6 5 1 2 3 4 6 5 6 5 6 4 1 5 4 5 6 5 4 4 6 5 5 5 4 4 3 2 2 1 1 1 1 1 2 1 1 0 1 0 0 0 0 0
7 8 5 0 2 2 5 6 4 4 3 3 0 4 3 2 4 4 5 5 5 4 4 4 4 4 3 2 2 2 1 1 1 1 1 1 1 1 1 0 0 0 0 0
6 5 6 2 2 3 5 5 5 5 4 3 2 2 4 4 4 4 4 4 4 4 5 5 4 4 3 3 2 1 1 1 1 1 1 1 0 1 1 1 1 1 1 1
5 5 6 3 2 2 3 4 4 4 4 3 2 2 4 6 5 4 4 4 4 4 4 4 4 4 3 3 3 2 2 1 0 1 1 1 1 1 1 1 1 1 1 1
6 4 4 2 1 1 3 4 4 4 3 3 2 2 4 5 4 4 4 5 5 4 4 4 4 4 4 4 4 3 2 2 1 1 1 1 1 0 0 0 1 1 1 1
3 5 4 4 3 3 4 5 5 3 3 2 3 2 3 3 3 4 4 4 3 3 4 4 4 4 4 4 4 3 3 2 2 1 1 1 1 1 1 1 2 1 1 1
3 5 5 4 3 3 3 5 5 5 4 3 2 3 2 2 3 3 3 3 3 4 4 4 4 3 3 3 4 3 3 2 2 1 1 1 1 2 2 2 1 1 0 0
2 5 6 5 3 3 3 4 5 4 4 3 3 3 3 2 2 3 3 3 3 3 4 4 4 4 4 4 3 3 2 2 2 1 1 1 2 2 2 1 1 1 1 1
5 5 6 5 4 5 2 3 3 4 3 3 2 2 3 3 2 2 3 2 2 3 3 3 4 3 3 3 3 2 2 1 1 1 1 1 2 2 2 1 2 1 1 1
4 5 5 5 4 3 3 2 3 4 4 4 3 2 1 2 2 3 3 3 3 3 3 3 3 2 2 2 2 2 1 0 0 0 1 1 2 2 2 2 2 1 1 1
2 3 5 5 4 1 2 3 3 3 3 4 2 1 0 2 3 4 3 3 3 3 3 2 2 1 1 1 1 2 1 1 1 1 1 1 1 2 2 2 2 1 0 1
2 2 4 5 6 3 2 3 2 2 0 3 2 1 2 1 1 2 2 2 3 3 2 2 2 2 2 2 1 1 1 2 2 2 2 2 2 2 2 2 1 0 0 1
3 4 5 6 6 1 4 4 2 1 2 4 2 3 3 3 2 2 2 3 3 3 2 2 2 2 2 1 1 1 1 1 1 2 3 2 2 1 2 1 0 0 1 1
4 3 3 4 4 2 5 3 3 3 2 2 2 4 4 3 3 3 3 4 4 3 2 2 2 2 1 1 1 1 1 1 1 2 3 2 2 1 1 1 0 1 1 1
3 3 3 3 2 2 3 3 2 1 0 1 2 2 3 3 2 3 4 4 3 3 3 2 1 1 1 1 1 1 1 1 1 2 2 1 1 1 1 0 0 0 0 1
2 1 2 2 1 1 1 1 1 1 0 1 2 2 2 2 2 2 3 3 3 3 2 2 1 1 1 1 1 1 1 1 1 1 1 1 0 0 0 1 1 1 1 1
6 4 3 3 2 2 2 1 1 1 0 1 2 2 3 3 2 2 2 2 2 2 1 1 1 0 1 1 1 1 1 1 1 1 1 1 0 0 0 1 1 1 1 1
5 4 4 4 3 3 2 2 1 1 1 2 3 3 3 2 2 2 2 2 2 1 1 0 0 1 1 1 1 1 1 1 1 1 1 2 1 1 1 1 1 2 0 1
Wind_Direction
238 241 257 277 273 275 279 276 266 259 239 220 203 172 151 177 153 131 125 113 112 99 89 76 76 90 93 95 98 101 102 108 119 115 137 259 65 23 4 63 129 144 163 170
246 244 262 275 273 269 278 283 283 281 260 237 210 199 147 150 131 121 106 102 95 99 100 96 90 94 100 102 107 111 105 108 120 110 112 148 140 140 183 18 91 127 145 167
279 293 292 281 280 280 277 283 298 291 272 241 211 200 130 122 92 77 77 86 97 101 98 94 81 83 98 105 107 105 112 123 118 135 153 184 166 268 216 120 100 116 135 145
286 312 314 306 311 306 305 313 298 276 263 255 231 217 141 128 107 82 56 73 89 88 79 67 90 92 91 99 108 109 109 112 126 143 160 215 161 222 259 143 149 160 163 172
294 320 317 317 325 316 299 299 287 275 264 264 236 249 150 128 96 78 69 71 76 77 86 77 80 85 80 87 109 112 104 93 84 85 103 337 329 288 304 135 164 184 172 177
292 310 327 334 317 304 299 298 280 265 262 248 218 216 148 135 112 102 77 63 59 59 65 72 75 86 82 73 82 99 105 94 74 91 111 163 267 280 276 230 202 204 177 163
277 261 301 336 327 319 306 309 299 277 246 247 207 160 94 85 101 97 81 73 54 59 58 58 59 59 65 77 82 94 103 106 124 132 198 261 277 259 271 271 256 245 212 177
306 289 341 350 322 307 300 301 294 291 285 293 310 88 93 94 87 87 74 70 60 45 42 45 49 51 47 64 74 89 112 137 155 151 172 184 351 305 284 260 303 293 293 51
317 307 302 359 312 310 310 307 285 282 279 275 117 106 109 90 94 81 72 65 63 44 39 39 40 39 36 41 64 74 112 142 163 169 162 160 161 226 280 332 236 293 8 335
312 308 299 256 252 237 297 307 305 305 306 317 215 138 123 86 75 74 64 51 55 50 48 43 45 42 35 35 62 80 110 136 148 157 205 172 170 195 191 175 112 67 34 332
328 305 297 282 6 355 323 327 326 313 312 311 305 82 96 104 90 77 67 47 50 47 49 46 42 36 34 36 45 75 96 112 106 156 168 124 157 204 185 184 195 174 183 232
341 306 293 295 40 4 322 329 321 321 329 320 340 85 79 97 86 75 77 61 55 51 53 51 43 29 27 32 32 37 53 67 98 114 127 129 159 189 232 233 204 185 184 213
339 311 291 253 236 7 319 322 320 324 316 328 341 80 86 88 85 74 69 61 55 46 48 47 40 27 27 29 26 31 27 28 32 52 83 94 122 143 167 203 139 139 148 156
298 302 303 311 328 328 317 325 332 329 320 359 31 66 103 93 88 78 71 61 58 62 53 40 37 27 27 29 24 20 19 29 44 47 79 98 130 150 126 107 104 131 155 158
318 297 304 308 311 318 332 340 356 9 353 357 31 36 45 65 77 88 81 68 62 56 42 30 30 36 30 27 23 18 15 24 37 26 80 110 127 129 122 107 111 104 135 184
307 293 294 285 299 337 348 356 5 17 22 53 56 44 37 68 93 87 79 69 59 38 31 25 26 32 27 16 15 12 8 20 25 29 73 116 119 117 113 116 120 106 72 46
307 305 296 284 299 298 320 8 12 29 46 47 36 41 54 46 74 74 85 81 62 39 30 24 25 26 27 15 12 353 342 17 39 58 70 96 113 114 119 115 108 98 74 44
297 310 292 282 286 294 73 54 40 25 32 43 60 41 4 60 88 109 98 83 62 42 36 36 38 18 7 18 22 335 327 21 114 152 137 100 107 111 112 111 92 75 68 28
230 277 292 298 300 255 103 44 15 357 30 36 33 17 62 99 106 106 87 72 74 69 61 46 42 40 13 28 30 346 359 17 20 40 61 60 77 93 99 89 86 84 58 304
216 245 267 288 302 316 59 30 355 285 105 21 14 37 72 112 66 86 69 78 86 85 80 58 51 60 46 35 42 18 15 20 23 28 41 45 61 73 76 74 62 65 269 266
246 238 255 278 285 342 37 10 330 303 25 358 18 56 58 54 45 103 108 99 104 100 99 93 76 71 62 59 51 29 41 19 17 34 46 48 44 73 101 86 16 310 302 320
297 285 282 278 282 332 20 14 29 44 44 356 48 78 74 73 80 98 100 104 105 96 93 97 94 87 82 93 79 65 53 27 36 39 37 36 31 16 72 78 19 301 300 323
309 331 323 340 352 63 28 44 81 123 355 33 89 97 104 97 91 88 85 90 91 88 78 84 99 115 111 109 83 53 38 25 36 32 27 20 33 50 59 120 144 290 287 297
306 343 293 288 313 31 17 26 15 40 357 96 130 129 128 118 106 89 91 90 82 77 84 83 97 99 102 124 127 88 72 44 31 11 4 331 328 136 86 10 355 8 352 336
318 313 288 259 285 305 321 328 304 317 205 136 123 124 132 131 116 93 91 89 75 71 71 87 89 140 153 162 166 155 140 100 3 311 301 293 284 314 78 93 12 20 43 40
297 295 293 296 324 302 309 318 285 213 212 159 145 134 125 124 120 97 94 98 85 73 67 66 241 220 184 165 162 170 184 186 244 281 297 290 274 224 223 174 140 37 126 142